User: anonymous   Login
Location: Austin
(30.3000°N, 97.7500°W)
Time: 21:53:55
(UTC-05:00)
Language:

YAOGAN 1 - Orbit

View from above orbital plane
View from above orbital plane
View from above satellite
View from above satellite

Ground track
Ground track

The orbit data is extracted from the following two-line orbital elements,

1 29092U 06015A   24200.54134333  .00002509  00000-0  29762-3 0  9993
2 29092  97.8031 225.3579 0001527  91.1224 269.0166 14.85384180985980
Epoch (UTC): 18 July 2024 12:59:32
Eccentricity: 0.0001527
inclination: 97.8031°
perigee height: 611 km
apogee height: 613 km
right ascension of ascending node: 225.3579°
argument of perigee: 91.1224°
revolutions per day: 14.85384180
mean anomaly at epoch: 269.0166°
orbit number at epoch: 98598

The dashed part of the orbit path shows where the satellite is in the earth's shadow,  

DLR